"Pseudo-MPEC" for P11Osjx

Created 2023 Nov 30 6:22:05 UT using Find_Orb

Click here for an explanation of pseudo-MPECs

 
 Astrometry: 
     P11Osjx* C2023 11 19tT8hnLvtYHAstrometry9JwtKa/Zd7.redacted;EY:OEa[J%U$qF51
     P11Osjx  C2023 11 19xLCNFVv_[sY`4C@xZ(x9C'8_BM/!)gr[9oc9L9xaf1GTAShIQ[l2F51
     P11Osjx  C2023 11 19M+T!n0^[(sNx\g$u??aQfa_an(0EcW17b@l1PPl2#Ad_bB4(aO3MF51
     P11Osjx  C2023 11 19jr4_Ty^VJ/rjU]t_P,bKK!gmioU\(b/clickqGchereJ`[Z0j,TyO18
     P11Osjx  C2023 11 19jN^t4Fy_!fSj\..jKM;Lke2LEvq,PpvXUpmUo,15_!KGfordjl5qO18
     P11Osjx  C2023 11 19-asNirJ`XUVT3e$ZuMg,explanationca4(KXt:*'FT*5'TO_/`nO18
     P11Osjx KC2023 11 22.34294 04 18 51.83 +04 32 08.3    ~BMAb 22.3 RVNEOCP291
     P11Osjx KC2023 11 22.35265 04 18 52.90 +04 32 11.1    ~BMAb 22.4 RVNEOCP291

Station data:
(291) LPL/Spacewatch II  (N31.961669 W111.599905)  US/Arizona.  Observers J.
   V. Scotti, R. S. McMillan. 1.8-m f/2.7 reflector + CCD.
(F51) Pan-STARRS 1, Haleakala  (N20.707234 W156.255910)  US/Hawaii.
   Observers J. Bulger, T. Lowe, A. Schultz, M. Willman. Measurers K.
   Chambers, S. Chastel, T. de Boer, L. Denneau, J. Fairlamb, H. Flewelling,
   M. Huber, C.-C. Lin, E. Magnier, Y. Ramanjooloo, R. Wainscoat, R. Weryk.
   1.8-m Ritchey-Chrétien + CCD.
(O18) WFST, Lenghu  (N38.607601 E93.895220).

Orbital elements:  P11Osjx
   Perihelion 2023 Nov 10.52113 +/- 0.33 TT = 12:30:25 (JD 2460259.02113)
Epoch 2023 Nov 22.0 TT = JDT 2460270.5   Earth MOID: 0.1946   Ma: 0.0353
M   3.04146842 +/- 0.15             (J2000 ecliptic)             AutoNEOCP
n   0.26496235 +/- 0.00928          Peri.  237.15650 +/- 0.8
a   2.40074811 +/- 0.0561           Node   171.86861 +/- 0.52
e   0.5088875 +/- 0.00993           Incl.    3.07087 +/- 0.041
P   3.72                   H 24.61  G  0.15   U  9.6
q 1.17903736 +/- 0.00374    Q 3.62245886 +/- 0.108
From 8 observations 2023 Nov. 19-22; mean residual 0".11
Residuals in arcseconds: 
231119 F51  .11-  .06-    231119 O18  .02-  .07-    231122 291  .26-  .01-    
231119 F51  .07+  .05+    231119 O18  .09+  .08-    231122 291  .25+  .03+    
231119 F51  .04+  .04+    231119 O18  .07-  .07-    

Ephemerides (geocentric):
Date (UTC) HH   RA             Dec           delta  r     elong  mag " sig PA
---- --------  ------------   ------------  ------ ------ -----  --- --------
2023 11 30 06  04 33 33.901   +05 24 38.93  .22083 1.1998 163.6 22.5 19.2 107
2023 11 30 07  04 33 38.129   +05 24 59.65  .22092 1.1999 163.6 22.5 19.4 107
2023 11 30 08  04 33 42.353   +05 25 20.41  .22102 1.2000 163.6 22.5 19.5 107
2023 11 30 09  04 33 46.573   +05 25 41.22  .22111 1.2001 163.7 22.5 19.7 107
2023 11 30 10  04 33 50.788   +05 26 02.06  .22121 1.2002 163.7 22.5 19.8 107
2023 11 30 11  04 33 54.999   +05 26 22.95  .22130 1.2002 163.7 22.5 20.0 107
2023 11 30 12  04 33 59.206   +05 26 43.87  .22139 1.2003 163.7 22.5 20.2 107
2023 11 30 13  04 34 03.409   +05 27 04.84  .22149 1.2004 163.7 22.5 20.3 107
2023 11 30 14  04 34 07.608   +05 27 25.84  .22158 1.2005 163.7 22.5 20.5 107
2023 11 30 15  04 34 11.802   +05 27 46.89  .22168 1.2006 163.7 22.5 20.7 107
2023 11 30 16  04 34 15.993   +05 28 07.97  .22177 1.2007 163.7 22.5 20.8 107
2023 11 30 17  04 34 20.179   +05 28 29.10  .22187 1.2008 163.7 22.5 21.0 107
2023 11 30 18  04 34 24.361   +05 28 50.27  .22196 1.2009 163.7 22.5 21.2 107
2023 11 30 19  04 34 28.538   +05 29 11.47  .22206 1.2010 163.7 22.5 21.3 107
2023 11 30 20  04 34 32.712   +05 29 32.72  .22215 1.2010 163.7 22.5 21.5 107
2023 11 30 21  04 34 36.881   +05 29 54.00  .22225 1.2011 163.7 22.5 21.7 107
2023 11 30 22  04 34 41.046   +05 30 15.33  .22234 1.2012 163.7 22.5 21.8 107
2023 11 30 23  04 34 45.207   +05 30 36.69  .22244 1.2013 163.7 22.5 22.0 107
2023 12 01 00  04 34 49.364   +05 30 58.10  .22254 1.2014 163.7 22.5 22.2 107
2023 12 01 01  04 34 53.517   +05 31 19.54  .22263 1.2015 163.7 22.5 22.4 107
2023 12 01 02  04 34 57.665   +05 31 41.03  .22273 1.2016 163.7 22.5 22.5 107
2023 12 01 03  04 35 01.810   +05 32 02.55  .22282 1.2017 163.7 22.5 22.7 107
2023 12 01 04  04 35 05.950   +05 32 24.11  .22292 1.2018 163.7 22.5 22.9 106
2023 12 01 05  04 35 10.086   +05 32 45.71  .22302 1.2018 163.7 22.5 23.0 106
2023 12 01 06  04 35 14.218   +05 33 07.35  .22312 1.2019 163.7 22.5 23.2 106
2023 12 01 07  04 35 18.345   +05 33 29.03  .22321 1.2020 163.7 22.5 23.4 106
2023 12 01 08  04 35 22.469   +05 33 50.75  .22331 1.2021 163.7 22.5 23.6 106
2023 12 01 09  04 35 26.589   +05 34 12.51  .22341 1.2022 163.7 22.5 23.7 106
2023 12 01 10  04 35 30.704   +05 34 34.31  .22351 1.2023 163.7 22.5 23.9 106
2023 12 01 11  04 35 34.815   +05 34 56.15  .22361 1.2024 163.7 22.5 24.1 106
2023 12 01 12  04 35 38.923   +05 35 18.02  .22370 1.2025 163.7 22.5 24.3 106
2023 12 01 13  04 35 43.026   +05 35 39.94  .22380 1.2026 163.7 22.5 24.4 106
2023 12 01 14  04 35 47.125   +05 36 01.89  .22390 1.2027 163.7 22.5 24.6 106
2023 12 01 15  04 35 51.220   +05 36 23.88  .22400 1.2028 163.7 22.5 24.8 106
2023 12 01 16  04 35 55.310   +05 36 45.91  .22410 1.2029 163.7 22.5 25.0 106
2023 12 01 17  04 35 59.397   +05 37 07.98  .22420 1.2029 163.7 22.5 25.2 106
2023 12 01 18  04 36 03.480   +05 37 30.09  .22430 1.2030 163.7 22.5 25.3 106
2023 12 01 19  04 36 07.558   +05 37 52.23  .22440 1.2031 163.7 22.5 25.5 106
2023 12 01 20  04 36 11.633   +05 38 14.42  .22450 1.2032 163.8 22.5 25.7 106
2023 12 01 21  04 36 15.703   +05 38 36.64  .22460 1.2033 163.8 22.5 25.9 106
2023 12 01 22  04 36 19.769   +05 38 58.90  .22470 1.2034 163.8 22.5 26.1 106
2023 12 01 23  04 36 23.832   +05 39 21.20  .22480 1.2035 163.8 22.5 26.2 106
2023 12 02 00  04 36 27.890   +05 39 43.54  .22490 1.2036 163.8 22.5 26.4 106
2023 12 02 01  04 36 31.944   +05 40 05.91  .22500 1.2037 163.8 22.5 26.6 106
2023 12 02 02  04 36 35.994   +05 40 28.33  .22510 1.2038 163.8 22.5 26.8 106
2023 12 02 03  04 36 40.040   +05 40 50.78  .22520 1.2039 163.8 22.5 27.0 106
2023 12 02 04  04 36 44.082   +05 41 13.27  .22530 1.2040 163.8 22.5 27.1 106
2023 12 02 05  04 36 48.120   +05 41 35.79  .22540 1.2041 163.8 22.5 27.3 106